sat.trackr.live / text

‹ back to catalog

STARLINK-31796

NORAD 59646 · 2024-082R

PAYLOAD ACTIVE UNKNOWN

§ Identity

Operator
Country
US
Launch date
2024-05-03
Launch site
AFETR
Launch vehicle
Mass (kg)
RCS (m²)

Purposes: comms

External: N2YO · Heavens-Above · Gunter

§ Orbital elements

Epoch: 2026-05-25T03:13:00.338880Z

Period
94.27 min
Inclination
43.0022°
Eccentricity
0.0001077
Mean motion
15.27586402 rev/d
Perigee alt
482.3 km
Apogee alt
483.8 km
Semi-major
6,861.2 km
B*
7.8824e-5
RAAN
68.0430°
Arg perigee
264.6614°
Mean anomaly
95.4115°
Rev number
11,666

§ Raw data

STARLINK-317961 59646U 24082R   26145.13403170  .00001908  00000+0  78824-4 0  99932 59646  43.0022  68.0430 0001077 264.6614  95.4115 15.27586402116663

JSON: /api/v1/satellites/59646 · /tle

For live sub-satellite position, see the globe view (requires WebGL).

§ Visibility from observer

Set your observer location to see the next 7 days of passes ≥ 10°. The values pass through the URL so the page stays shareable.

No JS? Fill the form by hand. The geolocation button needs JavaScript.